Weather History for Atwater, CA

Change the Weather History Date:

Monday, November 25, 2013

  Actual Average (KMCE) Record (KMCE)
Temperature  
Mean Temperature 50 °F 49 °F  
Max Temperature 64 °F 60 °F 66 °F (1998)
Min Temperature 35 °F 38 °F 26 °F (2003)
Degree Days  
Heating Degree Days 16    
Month to date heating degree days  
Since 1 July heating degree days  
Cooling Degree Days 0    
Month to date cooling degree days  
Year to date cooling degree days  
Moisture  
Dew Point 42 °F    
Average Humidity 94    
Maximum Humidity 100    
Minimum Humidity 49    
Precipitation  
Precipitation 0.00 in 0.03 in 0.64 in (1961)
Month to date precipitation 1.02  
Year to date precipitation 10.82  
Since 1 July precipitation 2.14  
Snow  
Snow 0.00 in - - ()
Month to date snowfall  
Since 1 July snowfall  
Since 1 September snowfall  
Snow Depth -    
Sea Level Pressure  
Sea Level Pressure 30.28 in    
Wind  
Wind Speed 1 mph (NNE)    
Max Wind Speed 7 mph    
Max Gust Speed -    
Visibility 3 miles    
Events Fog    
T = Trace of Precipitation, MM = Missing Value Source: NWS Daily Summary

Daily Weather History Graph

Daily Weather History Graph

Search for Another Location

Airport:

Trip Planner

Search our weather history database for the weather conditions in past years. The results will help you decide how hot, cold, wet, or windy it might be!

Date:

Astronomy

Nov. 25, 2013 Rise Set
Actual Time 6:52 AM PST 4:46 PM PST
Civil Twilight 6:23 AM PST 5:14 PM PST
Nautical Twilight 5:51 AM PST 5:46 PM PST
Astronomical Twilight 5:20 AM PST 6:17 PM PST
Moon No Moon Rise 12:16 PM PST (11/25)
Length of Visible Light 10h 50m
Length of Day
9h 53m
Waning Gibbous, 50% of the Moon is Illuminated
Nov 25
Waning Gibbous
Dec 2
New
Dec 9
First Quarter
Dec 17
Full
Dec 25
Last Quarter

Hourly Weather History & Observations

Time (PST) Temp. Windchill Dew Point Humidity Pressure Visibility Wind Dir Wind Speed Gust Speed Precip Events Conditions
12:15 AM 39.2 °F - 39.2 °F 100% 30.26 in 3.0 mi Calm Calm - N/A   Clear
12:35 AM 39.2 °F 37.0 °F 39.2 °F 100% 30.26 in 2.5 mi SE 3.5 mph - N/A   Clear
12:55 AM 39.2 °F - 39.2 °F 100% 30.27 in 1.8 mi Calm Calm - N/A   Clear
1:15 AM 42.8 °F - 42.8 °F 100% 30.27 in 4.0 mi Calm Calm - N/A   Clear
1:35 AM 39.2 °F - 39.2 °F 100% 30.27 in 3.0 mi Calm Calm - N/A   Clear
1:55 AM 39.2 °F - 39.2 °F 100% 30.27 in 2.5 mi Calm Calm - N/A   Clear
2:15 AM 37.4 °F - 37.4 °F 100% 30.27 in 2.0 mi Calm Calm - N/A   Clear
2:35 AM 37.4 °F - 37.4 °F 100% 30.27 in 2.0 mi Calm Calm - N/A   Clear
2:55 AM 39.2 °F - 39.2 °F 100% 30.27 in 3.0 mi Calm Calm - N/A   Clear
3:15 AM 37.4 °F - 37.4 °F 100% 30.27 in 1.8 mi Calm Calm - N/A   Clear
3:35 AM 37.4 °F - 37.4 °F 100% 30.27 in 2.0 mi Calm Calm - N/A   Clear
3:55 AM 35.6 °F - 35.6 °F 100% 30.28 in 3.0 mi Calm Calm - N/A   Clear
4:15 AM 37.4 °F - 37.4 °F 100% 30.27 in 1.8 mi Calm Calm - N/A   Clear
4:35 AM 35.6 °F - 35.6 °F 100% 30.28 in 2.0 mi Calm Calm - N/A   Clear
4:55 AM 39.2 °F - 39.2 °F 100% 30.28 in 2.5 mi Calm Calm - N/A   Clear
5:15 AM 37.4 °F - 37.4 °F 100% 30.28 in 2.0 mi Calm Calm - N/A   Clear
5:35 AM 35.6 °F - 35.6 °F 100% 30.28 in 0.2 mi Calm Calm - N/A   Unknown
5:55 AM 35.6 °F - 35.6 °F 100% 30.29 in 0.2 mi Calm Calm - N/A   Unknown
6:45 AM 35.6 °F - 35.6 °F 100% 30.29 in 0.2 mi Calm Calm - N/A Fog Fog
7:28 AM 35.6 °F - 35.6 °F 100% 30.30 in 0.5 mi Calm Calm - N/A Fog Fog
7:45 AM 37.4 °F 34.9 °F 37.4 °F 100% 30.31 in 1.5 mi ESE 3.5 mph - N/A   Clear
8:55 AM 44.6 °F - 44.6 °F 100% 30.34 in 3.0 mi Calm Calm - N/A   Clear
9:45 AM 50.0 °F - 50.0 °F 100% 30.35 in 3.0 mi Calm Calm - N/A   Haze
10:45 AM 55.4 °F - 55.4 °F 100% 30.35 in 3.0 mi Calm Calm - N/A   Haze
11:45 AM 60.8 °F - 51.8 °F 72% 30.32 in 5.0 mi Calm Calm - N/A   Haze
12:45 PM 64.4 °F - 46.4 °F 52% 30.29 in 5.0 mi Calm Calm - N/A   Haze
1:45 PM 64.4 °F - 44.6 °F 49% 30.28 in 5.0 mi Calm Calm - N/A   Haze
2:45 PM 64.4 °F - 44.6 °F 49% 30.27 in 5.0 mi WNW 4.6 mph - N/A   Haze
3:45 PM 64.4 °F - 44.6 °F 49% 30.27 in 5.0 mi Variable 4.6 mph - N/A   Haze
4:45 PM 57.2 °F - 46.4 °F 67% 30.27 in 5.0 mi Variable 4.6 mph - N/A   Haze
5:45 PM 53.6 °F - 50.0 °F 88% 30.27 in 5.0 mi Variable 4.6 mph - N/A   Haze
6:45 PM 51.8 °F - 51.8 °F 100% 30.27 in 7.0 mi NNW 6.9 mph - N/A   Clear
7:45 PM 46.4 °F 42.9 °F 46.4 °F 100% 30.28 in 7.0 mi NNW 6.9 mph - N/A   Clear
8:15 PM 44.6 °F - 44.6 °F 100% 30.27 in 4.0 mi North - - N/A   Clear
8:35 PM 44.6 °F - 44.6 °F 100% 30.27 in 2.5 mi Calm Calm - N/A   Clear
8:45 PM 44.6 °F - 44.6 °F 100% 30.27 in 7.0 mi Calm Calm - N/A   Clear
8:55 PM 42.8 °F - 42.8 °F 100% 30.27 in 4.0 mi Calm Calm - N/A   Clear
9:15 PM 42.8 °F - 42.8 °F 100% 30.28 in 3.0 mi Calm Calm - N/A   Clear
9:35 PM 44.6 °F - 44.6 °F 100% 30.29 in 4.0 mi Calm Calm - N/A   Clear
9:55 PM 42.8 °F - 42.8 °F 100% 30.29 in 2.5 mi Calm Calm - N/A   Clear
10:15 PM 41.0 °F 39.0 °F 41.0 °F 100% 30.29 in 3.0 mi ENE 3.5 mph - N/A   Clear
10:35 PM 41.0 °F - 41.0 °F 100% 30.29 in 3.0 mi Calm Calm - N/A   Clear
10:55 PM 41.0 °F - 41.0 °F 100% 30.29 in 2.5 mi Calm Calm - N/A   Clear
11:15 PM 42.8 °F - 42.8 °F 100% 30.29 in 3.0 mi Calm Calm - N/A   Clear
11:35 PM 42.8 °F - 42.8 °F 100% 30.29 in 2.5 mi Calm Calm - N/A   Clear
11:55 PM 41.0 °F - 41.0 °F 100% 30.29 in 2.0 mi Calm Calm - N/A   Clear